WXM80 ListenWXM80 Stop

You find our weather info also at:

UK Metoffice

WeatherCloud

Weather Underground

Northeastern Weather Network

AWEKAS

Citizen Weather Observer Program (CWOP)

HAMweather, WeatherForYou, PWS Weather


Weather Underground History page Text

Daily Summary for August 12, 2017 Units:  Metric    English   Both
« Previous Day
Next Day »
Daily Weekly Monthly Yearly Custom
  High: Low: Average:
Temperature: 24.3 °C 17 °C 21.4 °C
Dew Point: 21.8 °C 15.4 °C 19.2 °C
Humidity: 94 % 74 % 87 %
Wind Speed: 6.1 km/h 0 km/h 0.6 km/h
Wind Gust: 11.3 km/h - -
Wind:- - ESE
Pressure: 1015.1 hPa 1009.4 hPa -
Precipitation: 1.52 mm    
Historical Graphs
 
 
Tabular Data for August 12, 2017
Time Temperature Dew Point Pressure Wind Wind Speed Wind Gust Humidity Rainfall Rate (Hourly)
00:01 21.9 °C 17.1 °C 1014.4 hPa Calm     74 % 0 mm
00:04 21.9 °C 17.1 °C 1014.4 hPa Calm   1.9 km/h 74 % 0 mm
00:09 21.8 °C 17.2 °C 1014.4 hPa Calm     75 % 0 mm
00:15 21.8 °C 16.9 °C 1014.4 hPa Calm     74 % 0 mm
00:20 21.8 °C 17.2 °C 1014.4 hPa Calm     75 % 0 mm
00:25 21.7 °C 17.3 °C 1014.4 hPa Calm     76 % 0 mm
00:30 21.7 °C 17.1 °C 1014.4 hPa Calm     75 % 0 mm
00:35 21.7 °C 17.5 °C 1014.4 hPa Calm     77 % 0 mm
00:40 21.7 °C 17.7 °C 1014.1 hPa Calm     78 % 0 mm
00:45 21.7 °C 17.9 °C 1014.1 hPa Calm     79 % 0 mm
00:50 21.6 °C 17.8 °C 1014.4 hPa Calm     79 % 0 mm
00:55 21.6 °C 18.2 °C 1014.4 hPa Calm     81 % 0 mm
01:00 21.5 °C 18.1 °C 1014.4 hPa Calm     81 % 0 mm
01:05 21.4 °C 18.2 °C 1014.1 hPa Calm     82 % 0 mm
01:10 21.3 °C 18.3 °C 1014.1 hPa Calm     83 % 0 mm
01:15 21.3 °C 18.3 °C 1014.4 hPa Calm     83 % 0 mm
01:20 21.2 °C 18.2 °C 1014.4 hPa Calm     83 % 0 mm
01:25 21.1 °C 18.3 °C 1014.8 hPa Calm     84 % 0 mm
01:30 21.1 °C 18.2 °C 1014.8 hPa SE 0.2 km/h 1.9 km/h 84 % 0 mm
01:35 21 °C 18.4 °C 1014.4 hPa Calm     85 % 0.25 mm
01:40 20.9 °C 18.3 °C 1014.4 hPa Calm     85 % 0.25 mm
01:45 20.9 °C 18.4 °C 1014.4 hPa Calm     86 % 0.25 mm
01:50 20.8 °C 18.4 °C 1014.4 hPa Calm     86 % 0.25 mm
01:55 20.8 °C 18.8 °C 1014.4 hPa Calm     88 % 0.25 mm
02:01 20.8 °C 18.6 °C 1014.8 hPa Calm   1.9 km/h 87 % 0.25 mm
02:05 20.7 °C 18.7 °C 1014.8 hPa Calm     88 % 0.25 mm
02:10 20.7 °C 18.6 °C 1014.8 hPa Calm     88 % 0 mm
02:15 20.6 °C 18.5 °C 1015.1 hPa Calm     88 % 0.25 mm
02:20 20.3 °C 17.1 °C 1015.1 hPa Calm   8 km/h 82 % 0 mm
02:26 20 °C 16.4 °C 1015.1 hPa Calm   1.6 km/h 80 % 0.25 mm
02:30 19.9 °C 16.4 °C 1014.8 hPa Calm     80 % 0.25 mm
02:35 19.8 °C 16.4 °C 1014.8 hPa Calm   1.6 km/h 81 % 0 mm
02:41 19.7 °C 16.5 °C 1015.1 hPa Calm   3.2 km/h 82 % 0 mm
02:45 19.3 °C 16.2 °C 1015.1 hPa Calm   1.6 km/h 82 % 0 mm
02:50 19.1 °C 15.9 °C 1014.8 hPa Calm   1.6 km/h 82 % 0 mm
02:55 18.9 °C 15.6 °C 1014.8 hPa Calm     81 % 0 mm
03:01 18.7 °C 15.6 °C 1014.8 hPa SSW 1.8 km/h 1.9 km/h 82 % 0.76 mm
03:06 18.5 °C 15.4 °C 1014.8 hPa Calm     82 % 0.76 mm
03:11 18.3 °C 15.4 °C 1014.8 hPa Calm     83 % 0.76 mm
03:16 18.2 °C 15.6 °C 1014.8 hPa Calm     85 % 1.02 mm
03:21 18 °C 15.4 °C 1014.8 hPa Calm     85 % 1.02 mm
03:26 17.9 °C 15.5 °C 1014.4 hPa Calm     86 % 0.76 mm
03:31 17.8 °C 15.4 °C 1014.4 hPa Calm   1.9 km/h 86 % 0.76 mm
03:36 17.7 °C 15.5 °C 1014.4 hPa Calm     87 % 0.76 mm
03:41 17.6 °C 15.6 °C 1014.4 hPa Calm     88 % 0.51 mm
03:46 17.5 °C 15.5 °C 1014.4 hPa Calm     88 % 0.51 mm
03:51 17.4 °C 15.4 °C 1014.1 hPa Calm     88 % 0.51 mm
03:56 17.3 °C 15.7 °C 1014.1 hPa Calm   1.9 km/h 90 % 0.51 mm
04:01 17.3 °C 15.7 °C 1013.4 hPa SSW 0.3 km/h 1.9 km/h 90 % 0.51 mm
04:06 17.3 °C 15.8 °C 1013.4 hPa Calm   1.9 km/h 91 % 0.51 mm
04:11 17.2 °C 15.7 °C 1013.4 hPa Calm     91 % 0.51 mm
04:16 17.2 °C 15.7 °C 1013.1 hPa Calm     91 % 0.25 mm
04:21 17.1 °C 15.6 °C 1013.1 hPa Calm     91 % 0.25 mm
04:26 17.1 °C 15.6 °C 1013.1 hPa Calm   1.9 km/h 91 % 0.25 mm
04:31 17.1 °C 15.7 °C 1013.1 hPa Calm     92 % 0 mm
04:36 17 °C 15.7 °C 1012.8 hPa SSE 1.8 km/h 3.7 km/h 92 % 0 mm
04:41 17.1 °C 15.9 °C 1012.8 hPa SSE 1 km/h 5.6 km/h 93 % 0 mm
04:46 17.1 °C 15.9 °C 1012.8 hPa SSE 1.4 km/h 3.7 km/h 93 % 0 mm
04:51 17.2 °C 16 °C 1012.8 hPa SSE 0.6 km/h 3.7 km/h 93 % 0 mm
04:56 17.2 °C 16 °C 1012.8 hPa Calm     93 % 0 mm
05:01 17.2 °C 16 °C 1012.8 hPa Calm     93 % 0 mm
05:06 17.2 °C 16 °C 1012.8 hPa Calm     93 % 0 mm
05:11 17.2 °C 16.2 °C 1012.8 hPa Calm     94 % 0 mm
05:16 17.3 °C 16.3 °C 1012.8 hPa Calm     94 % 0 mm
05:21 17.3 °C 16.3 °C 1013.1 hPa Calm     94 % 0 mm
05:26 17.3 °C 16.3 °C 1012.8 hPa Calm     94 % 0 mm
05:31 17.4 °C 16.4 °C 1012.8 hPa Calm     94 % 0 mm
05:36 17.4 °C 16.4 °C 1012.8 hPa Calm   1.9 km/h 94 % 0 mm
05:41 17.4 °C 16.4 °C 1013.1 hPa Calm     94 % 0 mm
05:46 17.5 °C 16.5 °C 1013.1 hPa Calm     94 % 0 mm
05:51 17.5 °C 16.5 °C 1012.8 hPa Calm     94 % 0 mm
05:56 17.5 °C 16.5 °C 1013.1 hPa Calm     94 % 0 mm
06:01 17.6 °C 16.6 °C 1013.1 hPa Calm     94 % 0 mm
06:06 17.5 °C 16.5 °C 1013.1 hPa Calm     94 % 0 mm
06:11 17.6 °C 16.6 °C 1013.1 hPa SSE 0.3 km/h 1.6 km/h 94 % 0 mm
06:16 17.6 °C 16.6 °C 1013.1 hPa Calm   1.9 km/h 94 % 0 mm
06:21 17.6 °C 16.6 °C 1013.1 hPa Calm     94 % 0 mm
06:26 17.6 °C 16.6 °C 1013.4 hPa Calm     94 % 0 mm
06:32 17.6 °C 16.6 °C 1013.1 hPa Calm   1.9 km/h 94 % 0 mm
06:37 17.6 °C 16.6 °C 1013.1 hPa Calm     94 % 0 mm
06:42 17.6 °C 16.6 °C 1013.1 hPa Calm     94 % 0 mm
06:47 17.7 °C 16.7 °C 1013.4 hPa Calm     94 % 0 mm
06:52 17.7 °C 16.7 °C 1013.4 hPa Calm     94 % 0 mm
06:57 17.7 °C 16.7 °C 1013.1 hPa Calm     94 % 0 mm
07:02 17.7 °C 16.7 °C 1013.1 hPa Calm     94 % 0 mm
07:07 17.7 °C 16.7 °C 1013.1 hPa Calm   1.6 km/h 94 % 0 mm
07:12 17.7 °C 16.7 °C 1013.1 hPa Calm   1.9 km/h 94 % 0 mm
07:17 17.8 °C 16.8 °C 1013.1 hPa Calm   1.9 km/h 94 % 0 mm
07:22 17.8 °C 16.8 °C 1013.1 hPa SSE 0.2 km/h 1.9 km/h 94 % 0 mm
07:27 17.8 °C 16.8 °C 1013.1 hPa Calm     94 % 0 mm
07:32 17.9 °C 16.9 °C 1013.1 hPa Calm     94 % 0 mm
07:37 18 °C 17 °C 1012.8 hPa Calm     94 % 0 mm
07:42 18 °C 17 °C 1012.8 hPa Calm   1.9 km/h 94 % 0 mm
07:47 18.1 °C 17.1 °C 1012.8 hPa Calm     94 % 0 mm
07:52 18.1 °C 16.9 °C 1013.1 hPa Calm     93 % 0 mm
07:57 18.2 °C 17.2 °C 1012.8 hPa Calm   1.9 km/h 94 % 0 mm
08:02 18.3 °C 17.3 °C 1012.8 hPa Calm   1.9 km/h 94 % 0 mm
08:07 18.3 °C 17.2 °C 1012.8 hPa SE 1 km/h 3.7 km/h 93 % 0 mm
08:12 18.4 °C 17.4 °C 1012.8 hPa Calm   1.9 km/h 94 % 0 mm
08:17 18.6 °C 17.4 °C 1012.8 hPa Calm   5.6 km/h 93 % 0 mm
08:22 18.6 °C 17.4 °C 1012.8 hPa Calm   3.7 km/h 93 % 0 mm
08:27 18.7 °C 17.5 °C 1012.8 hPa SE 0.5 km/h 5.6 km/h 93 % 0 mm
08:32 18.8 °C 17.6 °C 1012.8 hPa Calm   1.9 km/h 93 % 0 mm
08:38 18.9 °C 17.8 °C 1012.8 hPa Calm   1.9 km/h 93 % 0 mm
08:43 19.1 °C 17.9 °C 1012.8 hPa Calm     93 % 0 mm
08:48 19.1 °C 17.8 °C 1012.8 hPa Calm     92 % 0 mm
08:53 19.2 °C 17.9 °C 1012.8 hPa Calm     92 % 0 mm
08:58 19.3 °C 17.9 °C 1012.8 hPa Calm     92 % 0 mm
09:03 19.4 °C 17.9 °C 1012.8 hPa SE 0.6 km/h 5.6 km/h 91 % 0 mm
09:08 19.5 °C 18.2 °C 1012.8 hPa Calm   3.7 km/h 92 % 0 mm
09:13 19.7 °C 18.3 °C 1012.8 hPa SE 0.3 km/h 1.9 km/h 92 % 0 mm
09:18 19.8 °C 18.3 °C 1012.8 hPa Calm     91 % 0 mm
09:23 19.9 °C 18.4 °C 1013.1 hPa Calm   1.9 km/h 91 % 0 mm
09:28 19.9 °C 18.4 °C 1012.8 hPa Calm   1.9 km/h 91 % 0 mm
09:33 20.2 °C 18.8 °C 1012.8 hPa SE 0.2 km/h 1.9 km/h 92 % 0 mm
09:38 20.3 °C 18.6 °C 1012.8 hPa SE 1.9 km/h 3.7 km/h 90 % 0 mm
09:43 20.3 °C 18.4 °C 1012.8 hPa Calm   3.7 km/h 89 % 0 mm
09:48 20.3 °C 18.4 °C 1012.8 hPa SE 5.5 km/h 9.3 km/h 89 % 0 mm
09:53 20.5 °C 18.8 °C 1012.8 hPa SE 0.3 km/h 1.9 km/h 90 % 0 mm
09:58 20.9 °C 19.4 °C 1012.8 hPa SE 0.2 km/h 1.9 km/h 91 % 0 mm
10:03 21.4 °C 19.7 °C 1012.8 hPa Calm   1.9 km/h 90 % 0 mm
10:08 22 °C 20.1 °C 1012.4 hPa SE 1 km/h 3.7 km/h 89 % 0 mm
10:13 22.4 °C 20.1 °C 1012.8 hPa SE 1 km/h 1.9 km/h 87 % 0 mm
10:18 22.9 °C 20.8 °C 1012.8 hPa SE 0.2 km/h 1.9 km/h 88 % 0 mm
10:23 23.3 °C 20.4 °C 1012.8 hPa NE 1.9 km/h 5.6 km/h 84 % 0 mm
10:28 23.4 °C 20.3 °C 1012.8 hPa SE 0.2 km/h 1.9 km/h 83 % 0 mm
10:33 23.4 °C 19.9 °C 1012.4 hPa Calm   1.9 km/h 81 % 0 mm
10:38 23.3 °C 19.7 °C 1012.4 hPa Calm   1.9 km/h 80 % 0 mm
10:43 23.2 °C 19.8 °C 1012.8 hPa Calm   1.9 km/h 81 % 0 mm
10:48 23.1 °C 19.7 °C 1012.8 hPa East 0.8 km/h 3.2 km/h 81 % 0 mm
10:53 23 °C 19.8 °C 1012.8 hPa North 5.1 km/h 6.4 km/h 82 % 0 mm
10:58 22.9 °C 19.7 °C 1012.8 hPa NNE 6.1 km/h 7.4 km/h 82 % 0 mm
11:03 22.8 °C 19.6 °C 1012.4 hPa NE 1.8 km/h 7.4 km/h 82 % 0 mm
11:08 22.7 °C 19.6 °C 1012.4 hPa NNE 0.8 km/h 3.7 km/h 83 % 0 mm
11:13 22.7 °C 19.6 °C 1012.4 hPa NNE 0.6 km/h 3.7 km/h 83 % 0 mm
11:18 22.7 °C 19.7 °C 1012.4 hPa NNE 0.3 km/h   83 % 0 mm
11:23 22.8 °C 19.9 °C 1012.4 hPa Calm     84 % 0 mm
11:29 22.8 °C 19.8 °C 1012.4 hPa NNE 1.1 km/h 5.6 km/h 83 % 0 mm
11:33 22.8 °C 19.8 °C 1012.4 hPa NNE 2.9 km/h 5.6 km/h 83 % 0 mm
11:39 22.9 °C 19.9 °C 1012.4 hPa North 2.4 km/h 5.6 km/h 83 % 0 mm
11:44 23 °C 20.2 °C 1012.4 hPa Calm   1.6 km/h 84 % 0 mm
11:49 23.1 °C 19.8 °C 1012.4 hPa North 1.1 km/h 5.6 km/h 82 % 0 mm
11:54 23 °C 19.8 °C 1012.4 hPa North 1.6 km/h 5.6 km/h 82 % 0 mm
11:59 22.9 °C 19.7 °C 1012.8 hPa North 2.3 km/h 5.6 km/h 82 % 0 mm
12:04 22.9 °C 19.7 °C 1012.4 hPa NNE 1.4 km/h 5.6 km/h 82 % 0 mm
12:09 22.8 °C 19.6 °C 1012.8 hPa NNE 1.9 km/h 4.8 km/h 82 % 0 mm
12:14 22.7 °C 19.5 °C 1012.8 hPa NNE 1.1 km/h 3.7 km/h 82 % 0 mm
12:19 22.7 °C 19.4 °C 1012.8 hPa NNE 1 km/h 3.7 km/h 82 % 0 mm
12:24 22.6 °C 19.6 °C 1012.8 hPa NNE 0.3 km/h 5.6 km/h 83 % 0 mm
12:29 22.4 °C 19.4 °C 1012.8 hPa NE 2.1 km/h 3.7 km/h 83 % 0 mm
12:34 22.3 °C 19.3 °C 1012.4 hPa NNE 0.8 km/h 6.4 km/h 83 % 0 mm
12:39 22.3 °C 19.4 °C 1012.4 hPa Calm     84 % 0 mm
12:44 22.2 °C 19.4 °C 1012.4 hPa Calm     84 % 0 mm
12:49 22.2 °C 19.4 °C 1012.1 hPa NNE 0.5 km/h 1.9 km/h 84 % 0 mm
12:54 22.2 °C 19.6 °C 1012.1 hPa NNE 1.6 km/h 5.6 km/h 85 % 0 mm
12:59 22.3 °C 19.6 °C 1012.1 hPa NNE 0.5 km/h 1.9 km/h 85 % 0 mm
13:04 22.3 °C 19.7 °C 1012.1 hPa NE 4.3 km/h 7.4 km/h 85 % 0 mm
13:09 22.6 °C 20.1 °C 1012.1 hPa ENE 0.2 km/h 3.7 km/h 86 % 0 mm
13:14 23.1 °C 20.7 °C 1012.1 hPa NE 2.7 km/h 5.6 km/h 86 % 0 mm
13:19 23.4 °C 20.6 °C 1012.1 hPa North 4.7 km/h 5.6 km/h 84 % 0 mm
13:24 23.5 °C 20.4 °C 1012.1 hPa ENE 3.9 km/h 5.6 km/h 83 % 0 mm
13:29 23.6 °C 20.3 °C 1012.4 hPa Calm   5.6 km/h 82 % 0 mm
13:34 23.6 °C 20.3 °C 1012.1 hPa ENE 1.1 km/h 4.8 km/h 82 % 0 mm
13:39 23.4 °C 20.2 °C 1012.1 hPa NNE 2.4 km/h 6.4 km/h 82 % 0 mm
13:44 23.4 °C 20.2 °C 1012.1 hPa NNE 4.8 km/h 7.4 km/h 82 % 0 mm
13:49 23.3 °C 20.1 °C 1012.1 hPa NNE 2.3 km/h 5.6 km/h 82 % 0 mm
13:54 23.3 °C 20.2 °C 1012.1 hPa NNE 0.3 km/h 3.7 km/h 83 % 0 mm
13:59 23.2 °C 20.1 °C 1012.1 hPa NNE 1.3 km/h 3.7 km/h 83 % 0 mm
14:04 23.1 °C 20.1 °C 1012.1 hPa NNE 1.8 km/h 3.7 km/h 83 % 0 mm
14:09 23.2 °C 20.3 °C 1012.1 hPa North 3.5 km/h 7.4 km/h 84 % 0 mm
14:14 23.2 °C 20.1 °C 1012.1 hPa Calm   5.6 km/h 83 % 0 mm
14:19 23.2 °C 20.4 °C 1012.1 hPa NNE 1.3 km/h 3.7 km/h 84 % 0 mm
14:24 23.2 °C 20.2 °C 1012.1 hPa NNE 0.6 km/h 1.6 km/h 83 % 0 mm
14:30 23.3 °C 20.4 °C 1012.1 hPa NNE 0.2 km/h 1.9 km/h 84 % 0 mm
14:35 23.3 °C 20.3 °C 1012.1 hPa NE 0.6 km/h 5.6 km/h 83 % 0 mm
14:40 23.3 °C 20.3 °C 1011.7 hPa NE 1 km/h 3.2 km/h 83 % 0 mm
14:45 23.4 °C 20.3 °C 1011.7 hPa NE 4.3 km/h 5.6 km/h 83 % 0 mm
14:50 23.5 °C 20.4 °C 1011.7 hPa NE 2.9 km/h 3.7 km/h 83 % 0 mm
14:55 23.6 °C 20.6 °C 1011.7 hPa NNE 1 km/h 3.7 km/h 83 % 0 mm
15:00 23.7 °C 20.4 °C 1011.7 hPa NE 2.6 km/h 6.4 km/h 82 % 0 mm
15:05 23.8 °C 20.5 °C 1011.7 hPa NNE 1.4 km/h 3.7 km/h 82 % 0 mm
15:10 23.8 °C 20.5 °C 1011.7 hPa NNE 1.9 km/h 5.6 km/h 82 % 0 mm
15:15 23.8 °C 20.6 °C 1011.7 hPa NNE 0.2 km/h 3.7 km/h 82 % 0 mm
15:20 23.8 °C 20.6 °C 1011.7 hPa NNE 1.1 km/h 3.7 km/h 82 % 0 mm
15:25 23.8 °C 20.6 °C 1011.4 hPa ENE 0.5 km/h 5.6 km/h 82 % 0 mm
15:30 23.8 °C 20.5 °C 1011.4 hPa ENE 0.3 km/h 1.9 km/h 82 % 0 mm
15:35 23.7 °C 20.4 °C 1011.4 hPa ENE 0.3 km/h 1.9 km/h 82 % 0 mm
15:40 23.7 °C 20.4 °C 1011.4 hPa Calm   1.9 km/h 82 % 0 mm
15:45 23.6 °C 20.6 °C 1011.4 hPa ENE 0.3 km/h 1.9 km/h 83 % 0 mm
15:50 23.6 °C 20.6 °C 1011.4 hPa Calm   1.6 km/h 83 % 0 mm
15:55 23.6 °C 20.6 °C 1011.4 hPa Calm     83 % 0 mm
16:00 23.6 °C 20.6 °C 1011.1 hPa Calm   1.9 km/h 83 % 0 mm
16:05 23.6 °C 20.7 °C 1011.1 hPa Calm     84 % 0 mm
16:10 23.6 °C 20.5 °C 1011.1 hPa Calm     83 % 0 mm
16:14 23.6 °C 20.7 °C 1011.1 hPa Calm     84 % 0 mm
16:19 23.7 °C 20.8 °C 1010.7 hPa NE 0.5 km/h 3.7 km/h 84 % 0 mm
16:24 23.7 °C 20.8 °C 1010.7 hPa Calm     84 % 0 mm
16:30 23.8 °C 20.9 °C 1010.7 hPa NE 0.2 km/h   84 % 0 mm
16:40 23.9 °C 21.3 °C 1010.7 hPa Calm     85 % 0 mm
16:45 23.9 °C 21.1 °C 1010.7 hPa NE 0.2 km/h 1.9 km/h 84 % 0 mm
16:50 24 °C 20.9 °C 1010.7 hPa Calm   1.9 km/h 83 % 0 mm
16:55 24.1 °C 21.2 °C 1010.4 hPa Calm   1.9 km/h 84 % 0 mm
17:00 24.1 °C 21.2 °C 1010.7 hPa Calm     84 % 0 mm
17:05 24.2 °C 21.3 °C 1010.7 hPa Calm     84 % 0 mm
17:10 24.3 °C 21.4 °C 1010.7 hPa NE 0.2 km/h   84 % 0 mm
17:15 24.3 °C 21.4 °C 1010.7 hPa Calm     84 % 0 mm
17:21 24.3 °C 21.2 °C 1010.7 hPa Calm     83 % 0 mm
17:26 24.3 °C 21.4 °C 1010.7 hPa Calm     84 % 0 mm
17:36 24.3 °C 21.4 °C 1010.7 hPa Calm   1.6 km/h 84 % 0 mm
17:41 24.3 °C 21.4 °C 1010 hPa Calm     84 % 0 mm
17:46 24.3 °C 21.4 °C 1010 hPa Calm     84 % 0 mm
17:51 24.2 °C 21.6 °C 1009.7 hPa Calm   1.6 km/h 85 % 0 mm
17:56 24.2 °C 21.5 °C 1009.7 hPa NE 0.2 km/h   85 % 0 mm
18:01 24.1 °C 21.4 °C 1010 hPa Calm     85 % 0 mm
18:06 24.1 °C 21.4 °C 1009.7 hPa Calm     85 % 0 mm
18:11 24.1 °C 21.4 °C 1010 hPa Calm     85 % 0 mm
18:16 24.1 °C 21.4 °C 1010 hPa Calm   1.9 km/h 85 % 0 mm
18:21 24.1 °C 21.2 °C 1010 hPa SE 0.8 km/h 5.6 km/h 84 % 0 mm
18:26 24.1 °C 21.2 °C 1010 hPa Calm   1.9 km/h 84 % 0 mm
18:31 24.1 °C 21.1 °C 1010 hPa SE 1.6 km/h 5.6 km/h 83 % 0 mm
18:36 24.1 °C 21.2 °C 1010 hPa SE 1.1 km/h 3.7 km/h 84 % 0 mm
18:41 24.2 °C 21.1 °C 1010 hPa SE 3.7 km/h 5.6 km/h 83 % 0 mm
18:46 24.1 °C 21.1 °C 1010 hPa SE 5 km/h 7.4 km/h 83 % 0 mm
18:51 24.1 °C 21 °C 1010 hPa Calm     83 % 0 mm
18:56 24 °C 21.1 °C 1010.4 hPa Calm   1.9 km/h 84 % 0 mm
19:01 24 °C 21.1 °C 1010.4 hPa Calm   1.9 km/h 84 % 0 mm
19:06 23.9 °C 21.1 °C 1010.4 hPa SE 0.6 km/h 3.7 km/h 84 % 0 mm
19:11 23.8 °C 20.9 °C 1010.4 hPa Calm     84 % 0 mm
19:16 23.8 °C 21.1 °C 1010.4 hPa SE 0.2 km/h 1.9 km/h 85 % 0 mm
19:21 23.7 °C 21 °C 1010.4 hPa SE 0.2 km/h 1.9 km/h 85 % 0 mm
19:26 23.6 °C 20.9 °C 1010.4 hPa SE 0.2 km/h 1.9 km/h 85 % 0 mm
19:31 23.5 °C 20.8 °C 1010.4 hPa SE 0.2 km/h 1.9 km/h 85 % 0 mm
19:36 23.4 °C 20.9 °C 1010.4 hPa SE 0.2 km/h 3.7 km/h 86 % 0 mm
19:41 23.4 °C 20.9 °C 1010.4 hPa SE 1.9 km/h 5.6 km/h 86 % 0 mm
19:46 23.3 °C 20.8 °C 1010.4 hPa SE 0.5 km/h 6.4 km/h 86 % 0 mm
19:51 23.2 °C 20.9 °C 1009.7 hPa SE 2.3 km/h 5.6 km/h 87 % 0 mm
19:56 23.1 °C 20.8 °C 1009.7 hPa SE 2.9 km/h 9.3 km/h 87 % 0 mm
20:01 23 °C 20.9 °C 1010.4 hPa Calm     88 % 0 mm
20:05 23 °C 20.7 °C 1010.4 hPa Calm   1.9 km/h 87 % 0 mm
20:10 22.9 °C 20.8 °C 1010.7 hPa SE 0.2 km/h 1.9 km/h 88 % 0 mm
20:15 22.9 °C 20.8 °C 1010.7 hPa SE 0.8 km/h 3.7 km/h 88 % 0 mm
20:20 22.9 °C 20.8 °C 1010.7 hPa SE 0.2 km/h   88 % 0 mm
20:25 22.8 °C 20.9 °C 1010 hPa SE 0.2 km/h 1.9 km/h 89 % 0 mm
20:30 22.8 °C 20.9 °C 1010 hPa SE 0.2 km/h 1.9 km/h 89 % 0 mm
20:35 22.8 °C 20.9 °C 1009.7 hPa SE 1.1 km/h 3.7 km/h 89 % 0 mm
20:40 22.7 °C 20.8 °C 1009.7 hPa SE 0.5 km/h 5.6 km/h 89 % 0 mm
20:45 22.7 °C 20.9 °C 1009.7 hPa SE 0.3 km/h 1.9 km/h 90 % 0 mm
20:46 22.7 °C 20.9 °C 1010 hPa SE 0.5 km/h 1.9 km/h 90 % 0 mm
20:51 22.6 °C 20.9 °C 1010 hPa Calm   4.8 km/h 90 % 0 mm
20:56 22.6 °C 20.9 °C 1010 hPa Calm   6.4 km/h 90 % 0 mm
21:01 22.6 °C 20.9 °C 1010.4 hPa SSE 0.2 km/h 9.3 km/h 90 % 0 mm
21:06 22.6 °C 21 °C 1010.4 hPa SSE 0.2 km/h 1.9 km/h 91 % 0 mm
21:11 22.6 °C 21.1 °C 1010 hPa SE 1.3 km/h 5.6 km/h 91 % 0 mm
21:16 22.6 °C 21.1 °C 1010 hPa SSE 5.5 km/h 5.6 km/h 91 % 0 mm
21:21 22.6 °C 21.1 °C 1009.7 hPa SE 2.4 km/h 5.6 km/h 91 % 0 mm
21:26 22.6 °C 21.1 °C 1010 hPa ESE 0.2 km/h 1.9 km/h 91 % 0 mm
21:31 22.6 °C 21.2 °C 1010 hPa Calm   4.8 km/h 92 % 0 mm
21:36 22.6 °C 21.2 °C 1010 hPa SE 3.2 km/h 11.3 km/h 92 % 0 mm
21:41 22.6 °C 21.2 °C 1010 hPa SE 1.6 km/h 8 km/h 92 % 0 mm
21:46 22.6 °C 21.2 °C 1010 hPa Calm   9.7 km/h 92 % 0 mm
21:51 22.6 °C 21.2 °C 1010 hPa South 1.6 km/h 8 km/h 92 % 0 mm
21:56 22.7 °C 21.5 °C 1010 hPa SW 1.1 km/h 3.7 km/h 93 % 0 mm
22:01 22.7 °C 21.5 °C 1010 hPa WSW 3.1 km/h 3.7 km/h 93 % 0 mm
22:06 22.7 °C 21.6 °C 1010 hPa South 1.6 km/h 8 km/h 93 % 0 mm
22:11 22.7 °C 21.6 °C 1009.7 hPa South 1.6 km/h 8 km/h 93 % 0 mm
22:16 22.8 °C 21.4 °C 1009.7 hPa Calm   4.8 km/h 92 % 0 mm
22:21 22.8 °C 21.4 °C 1009.7 hPa WSW 1.6 km/h 3.2 km/h 92 % 0 mm
22:26 22.8 °C 21.4 °C 1009.7 hPa West 1.6 km/h 8 km/h 92 % 0 mm
22:31 22.8 °C 21.4 °C 1009.7 hPa SW 1.6 km/h 4.8 km/h 92 % 0 mm
22:36 22.8 °C 21.4 °C 1010 hPa South 1.6 km/h 6.4 km/h 92 % 0 mm
22:37 22.8 °C 21.4 °C 1009.7 hPa SSW 1.9 km/h 5.6 km/h 92 % 0 mm
22:42 22.8 °C 21.4 °C 1009.7 hPa South 0.3 km/h 1.6 km/h 92 % 0 mm
22:44 22.8 °C 21.4 °C 1009.7 hPa SW 0.6 km/h 9.3 km/h 92 % 0 mm
22:49 22.8 °C 21.4 °C 1009.7 hPa SSE 0.6 km/h 3.7 km/h 92 % 0 mm
22:54 22.8 °C 21.4 °C 1009.7 hPa Calm   3.7 km/h 92 % 0 mm
22:59 22.8 °C 21.4 °C 1009.7 hPa SW 0.2 km/h 1.9 km/h 92 % 0 mm
23:04 22.8 °C 21.4 °C 1009.7 hPa SSW 2.1 km/h 5.6 km/h 92 % 0 mm
23:09 22.8 °C 21.6 °C 1009.7 hPa WSW 1.4 km/h 5.6 km/h 93 % 0 mm
23:14 22.8 °C 21.7 °C 1009.4 hPa SW 0.8 km/h 9.3 km/h 93 % 0 mm
23:19 22.8 °C 21.7 °C 1009.7 hPa SSW 1.1 km/h 1.9 km/h 93 % 0 mm
23:23 22.8 °C 21.7 °C 1009.7 hPa SW 1.3 km/h 4.8 km/h 93 % 0 mm
23:27 22.8 °C 21.7 °C 1009.7 hPa WSW 1.6 km/h 5.6 km/h 93 % 0 mm
23:29 22.8 °C 21.7 °C 1009.7 hPa SE 0.2 km/h 3.7 km/h 93 % 0 mm
23:32 22.9 °C 21.7 °C 1009.7 hPa SW 0.8 km/h 5.6 km/h 93 % 0 mm
23:37 22.9 °C 21.7 °C 1009.7 hPa SW 0.5 km/h 3.7 km/h 93 % 0 mm
23:42 22.9 °C 21.7 °C 1009.7 hPa Calm   1.9 km/h 93 % 0 mm
23:47 22.9 °C 21.8 °C 1009.7 hPa SW 0.2 km/h 3.7 km/h 93 % 0 mm
23:52 22.9 °C 21.8 °C 1009.7 hPa SW 0.5 km/h 1.9 km/h 93 % 0 mm
23:57 22.9 °C 21.8 °C 1009.7 hPa SW 1.6 km/h 3.2 km/h 93 % 0 mm
Crab Meadow Weather
Compliments of Weather Underground - 3 mb

Script developed by  Jim McMurry - jmcmurry@mwt.net Adapted for the template by  Wim van der Kuil - Leuven-Template.eu

Weather Terms: Relative Humidity - The ratio of the amount of water vapor actually present in the air to the greatest amount possible at the same temperature.